Weather History for Lumberton, NC

Change the Weather History Date:

Saturday, April 13, 2013

  Actual Average Record
Temperature  
Mean Temperature 61 °F 61 °F  
Max Temperature 75 °F 74 °F 87 °F (2001)
Min Temperature 46 °F 48 °F 34 °F (2012)
Degree Days  
Heating Degree Days 4 6  
Month to date heating degree days 92 86  
Since 1 July heating degree days 2702 2662  
Cooling Degree Days 0 2  
Month to date cooling degree days 16 18  
Year to date cooling degree days 21 31  
Growing Degree Days 10 (Base 50)    
Moisture  
Dew Point 47 °F    
Average Humidity 63    
Maximum Humidity 93    
Minimum Humidity 33    
Precipitation  
Precipitation 0.00 in 0.10 in 0.36 in (2004)
Month to date precipitation 1.55 1.36  
Year to date precipitation 9.00 10.56  
Sea Level Pressure  
Sea Level Pressure 29.92 in    
Wind  
Wind Speed 5 mph (WNW)    
Max Wind Speed 16 mph    
Max Gust Speed 23 mph    
Visibility 10 miles    
Events      
T = Trace of Precipitation, MM = Missing Value Source: NWS Daily Summary

Daily Weather History Graph

Daily Weather History Graph

Search for Another Location

Airport:

Trip Planner

Search our weather history database for the weather conditions in past years. The results will help you decide how hot, cold, wet, or windy it might be!

Date:

Astronomy

Apr. 13, 2013 Rise Set
Actual Time 6:46 AM EDT 7:46 PM EDT
Civil Twilight 6:21 AM EDT 8:12 PM EDT
Nautical Twilight 5:50 AM EDT 8:43 PM EDT
Astronomical Twilight 5:18 AM EDT 9:15 PM EDT
Moon 8:43 AM EDT (4/13) 11:02 PM EDT (4/13)
Length of Visible Light 13h 51m
Length of Day
12h 59m
Waxing Crescent, 10% of the Moon is Illuminated
Apr 13
Waxing Crescent
Apr 18
First Quarter
Apr 25
Full
May 2
Last Quarter
May 9
New

Hourly Weather History & Observations

Time (EDT) Temp. Dew Point Humidity Pressure Visibility Wind Dir Wind Speed Gust Speed Precip Events Conditions
12:54 AM 62.1 °F 50.0 °F 65% 29.80 in 10.0 mi SW 5.8 mph - N/A   Clear
1:54 AM 55.9 °F 51.1 °F 84% 29.80 in 10.0 mi West 5.8 mph - N/A   Clear
2:54 AM 54.0 °F 48.9 °F 83% 29.81 in 10.0 mi West 4.6 mph - N/A   Clear
3:54 AM 51.1 °F 48.0 °F 89% 29.83 in 10.0 mi Calm Calm - N/A   Clear
4:54 AM 48.9 °F 46.9 °F 93% 29.86 in 10.0 mi Calm Calm - N/A   Clear
5:54 AM 48.0 °F 46.0 °F 93% 29.88 in 10.0 mi WNW 3.5 mph - N/A   Clear
6:54 AM 46.9 °F 45.0 °F 93% 29.91 in 10.0 mi Calm Calm - N/A   Clear
7:54 AM 55.0 °F 46.9 °F 74% 29.94 in 10.0 mi North 6.9 mph - N/A   Clear
8:54 AM 60.1 °F 44.1 °F 55% 29.96 in 10.0 mi NNE 10.4 mph - N/A   Clear
9:54 AM 63.0 °F 42.1 °F 46% 29.96 in 10.0 mi North 12.7 mph 20.7 mph N/A   Clear
10:54 AM 66.9 °F 44.1 °F 44% 29.98 in 10.0 mi NNE 8.1 mph - N/A   Clear
11:54 AM 70.0 °F 44.1 °F 39% 29.97 in 10.0 mi North 9.2 mph - N/A   Clear
12:54 PM 71.1 °F 43.0 °F 36% 29.96 in 10.0 mi NNE 9.2 mph - N/A   Clear
1:54 PM 72.0 °F 45.0 °F 38% 29.96 in 10.0 mi WNW 5.8 mph - N/A   Clear
2:54 PM 73.9 °F 44.1 °F 34% 29.94 in 10.0 mi Variable 3.5 mph - N/A   Clear
3:54 PM 73.9 °F 44.1 °F 34% 29.92 in 10.0 mi West 6.9 mph - N/A   Clear
4:54 PM 75.0 °F 45.0 °F 34% 29.91 in 10.0 mi SW 4.6 mph - N/A   Clear
5:54 PM 73.9 °F 45.0 °F 35% 29.91 in 10.0 mi WSW 5.8 mph - N/A   Clear
6:54 PM 71.1 °F 46.0 °F 41% 29.92 in 10.0 mi SW 5.8 mph - N/A   Clear
7:54 PM 59.0 °F 52.0 °F 78% 29.94 in 10.0 mi Calm Calm - N/A   Clear
8:54 PM 55.0 °F 50.0 °F 83% 29.96 in 10.0 mi Calm Calm - N/A   Clear
9:54 PM 59.0 °F 53.1 °F 81% 30.01 in 10.0 mi SSE 4.6 mph - N/A   Clear
10:54 PM 57.0 °F 52.0 °F 83% 30.02 in 10.0 mi South 4.6 mph - N/A   Clear
11:54 PM 54.0 °F 50.0 °F 86% 30.03 in 10.0 mi Calm Calm - N/A   Clear